Simultaneous Nadir Overpasses (SNOs) Predictions

Prediction of SNOs between GOES-15 and METOP-C Satellite Orbit:

Table of predicted SNOs for the next 14.0 days since TLE Epoch: 5/18/2021
Index Date Time (GOES-15) GOES-15 Lat,Lon METOP-C Lat,Lon Distance(km) Time Diff (sec)
1 05/20/2021 06:01:19 0.02,-128.23 0.11,-127.74 55.84 80
2 05/21/2021 18:20:10 -0.03,-128.29 0.86,-132.31 457.35 80
3 05/22/2021 18:02:11 -0.02,-128.32 -0.26,-127.32 114.30 80
4 05/24/2021 06:21:12 0.03,-128.32 -0.75,-131.92 409.75 80
5 05/25/2021 05:57:52 0.02,-128.33 0.31,-126.91 160.74 80
6 05/26/2021 18:16:43 -0.03,-128.37 0.66,-131.48 354.42 80
7 05/27/2021 17:58:43 -0.03,-128.39 -0.46,-126.49 216.22 80
8 05/29/2021 06:17:45 0.04,-128.38 -0.54,-131.10 308.60 80
9 05/30/2021 05:54:24 0.04,-128.39 0.52,-126.09 261.03 80
10 05/31/2021 18:13:16 -0.05,-128.41 0.45,-130.66 255.73 80
